Asteroid 2014 WE6
(Preview)
Asteroids 2014
1
1041
Orbital elements:
2014 WE6 Earth MOID = 0.0001 AU
Epoch 2014 Dec. 9.0 TT = JDT 2457000.5 MPC
M 117.52915 (2000.0) P Q
n 1.03312156 Peri. 251.82787 +0.56407239 +0.82571195
a 0.9690996 Node 52.51095 -0.75533086 +0.51827668
e 0.1364415 Incl. 0.33954 -0.33361298 +0.22268601
P 0.95 H 30.2 G 0....
August 12th
(Preview)
August
7
1244
Meteorites http://astronomy.activeboard.com/t44392375/dundrum-h5-meteorite/
Asteroid 65 Cybele
(Preview)
Asteroids
6
3442
Frozen water on asteroids may be more common than previously thought, according to new research that will help to support the idea they might have carried the key ingredient for life to the Earth. Water ice and organic molecules that help to form the basis of life have been discovered on a second aster...
KIC 2837475
(Preview)
Stars
0
372
Title: Asteroseismic analysis of Kepler target KIC 2837475 Author: Wuming Yang, Zhijia Tian, Shaolan Bi, Zhishuai Ge, Yaqian Wu, Jinghua Zhang The ratios r 01 and r 10 of small to large separations of KIC 2837475 primarily exhibit an increase behaviour in the observed frequency range. The cal...
Solar cycle 24
(Preview)
Solar 2013
5
3157
Title: 3He-rich SEP Events Observed by STEREO-A Authors: R. Bucik, U. Mall, A. Korth, G. M. Mason, R. Gomez-Herrero Using the SIT (Suprathermal Ion Telescope) instrument on STEREO-A we have examined the abundance of the rare isotope 3He during the rising activity phase of solar cycle 24 between Ja...
Asteroid 2015 PL9
(Preview)
Asteroids 2015
1
419
The 10 - 22 metre wide asteroid 2015 PL9 made a close pass (1.2 LD, 0.0032 AU) travelling at 11.23 km/second, to the Earth-Moon system on the 8th August 2015 @ 01:47 UT ±00:03. See more The Lunar Distance (LD), the distance between Earth and the Moon, equals 384,401 km, (or 0.00256 AU).
Asteroid 2015 PK9
(Preview)
Asteroids 2015
0
280
The 49 - 110 metre wide asteroid 2015 PK9 made a close pass (5.8 LD, 0.0148 AU) travelling at 8.69 km/second, to the Earth-Moon system on the 7th August 2015 @ 05:44 UT ±00:01. See more The Lunar Distance (LD), the distance between Earth and the Moon, equals 384,401 km, (or 0.00256 AU).
Comet 51P/Harrington
(Preview)
Solar System
4
4620
Comet 51P/Harrington Epoch 2008 June 23.0 TT = JDT 2454640.5 T 2008 June 18.39909 TT MPC q 1.6877644 (2000.0) P Q n 0.13830973 Peri. 269.16931 +0.98796971 +0.12276778 a 3.7031180 Node 83.77510 -0.07462469 +0.91108638 e 0.5442315 Incl. 5.42830 -0.13545116 +0.39350944 P 7.13 MPEC 2008-U53
Comet C/2008 J2 (Beshore)
(Preview)
Solar System
5
7314
E. Beshore (MT Lemmon Survey) announced the discovery of a new comet on May 06, 2008. The cometary nature of the magnitude 14 object was confirmed by other observers. The preliminary orbital elements of comet C/2008 J2 (Beshore) indicate a perihelion passage on October 07, 2008, at a distance of...
Asteroid 2007 RO17
(Preview)
Asteroids 2015
0
340
The 18 - 41 metre wide asteroid 2007 RO17 will make a close pass (42.6 LD, 0.1096 AU) travelling at 8.68 km/second, to the Earth-Moon system on the 12th August 2015 @ 19:02 UT ±12:13. See more The Lunar Distance (LD), the distance between Earth and the Moon, equals 384,401 km, (or 0.00256 AU).
Asteroid 2004 AS1
(Preview)
Solar System
2
818
Astronomers came within minutes of alerting the world to a potential asteroid strike last month. On 13 January, 2004, a 30m object, 2004 AS1, was predicted to have a one-in-four chance of hitting the planet within 36 hours. It could have caused local devastation and the researchers contemplated a c...
Asteroid 2012 NP
(Preview)
Asteroids 2012
1
1150
Orbital elements:
2012 NP Earth MOID = 0.1027 AU
Epoch 2012 Sept. 30.0 TT = JDT 2456200.5 MPC
M 20.61660 (2000.0) P Q
n 0.32329433 Peri. 160.39644 +0.64433147 +0.76199824
a 2.1025064 Node 149.61453 -0.71762325 +0.63172800
e 0.4723998 Incl. 7.35739 -0.26429874 +0.14240230
P 3.05 H 21.4 G 0...
Extinction
(
1 2 3 4 5 … 10
)
(Preview)
Astronomy News
94
65870
[url=http://mysite.freeserve.com/blobrana/news/explosion.html]star
Sun 11.08.15
(Preview)
Solar 2015
0
566
White-light image of sunspot 12396 and the western limb captured with a 100mm f5 Helios refractor and vesta pro webcam. Motorised EQ5 Mount and Baader solar filter.
Moon 11.08.15
(Preview)
Observations
1
730
Six panel photomosaic captured with a 100mm f5 Helios refractor and vesta pro webcam. Motorised EQ1 Mount.
«First < 1
291 292 293 294 295
2461 > Last» | Page
